Find Starlink 3546

NORAD ID: 51718 Int'l Des: 2022-016 Owner: SPXS Country: US Constellation: starlink operational
LEOCIRCULAR

当前视图

正在加载3D地球...

About Starlink 3546

Starlink 3546 (NORAD 51718) is a starlink constellation satellite (v1.5) launched Feb 21, 2022 by SPXS of US. It operates in LEO, CIRCULAR orbit with a mass of 297.00 kg.

关于 Starlink 3546

正在加载描述...

即将过境

Passes for default location (London). Set your location on the main map for personalized predictions.

高度历史

Loading altitude history...

两行轨道根数

1 51718U 22016E 26168.44377578 .00022120 00000-0 10304-2 0 9998
2 51718 53.2088 232.5042 0001462 275.9857 84.0974 15.19853198239730
Epoch: Jun 17, 2026 • Age: 20 hours

当前状态

高度 515.0 km
速度 7.61 km/s
星下点 -31.15°S, 169.49°W
发射日期 Feb 21, 2022
运行时间 4.3 years
类型 internet

技术详情

分类 Payload
质量 297.00 kg
干质量 275.00 kg
总质量 297.00 kg
长度 0.20 m
直径 2.80 m
跨度 9.00 m
形状 Box + pan
制造商 SPXS
平台类型 Starlink
阶段状态 In Orbit
所有者/国家 SPXS/US

Most Searched